FW9002 Weather Reports


time (UTC)temp
C
wind
direction
speed
KPH
gust
KPH
rain 1hr
cm
rain 24hr
cm
rain mn
cm
humidity
%
barometer
mb
20260904174109 31 226 4.8 3.2 0.00 0.00 0.00 46 1015.4
20260904173609 31 246 3.2 4.8 0.00 0.00 0.00 47 1015.4
20260904173105 31 263 6.4 8.0 0.00 0.00 0.00 47 1015.5
20260904172601 31 125 1.6 1.6 0.00 0.00 0.00 47 1015.6
20260904172100 31 238 3.2 3.2 0.00 0.00 0.00 47 1015.8
20260904171555 31 321 4.8 8.0 0.00 0.00 0.00 49 1015.5
20260904171051 31 100 3.2 3.2 0.00 0.00 0.00 49 1015.8
20260904170546 31 197 1.6 1.6 0.00 0.00 0.00 48 1015.8
20260904170043 31 200 4.8 4.8 0.00 0.00 0.00 49 1015.7
20260904165541 31 181 9.7 11.3 0.00 0.00 0.00 48 1015.6
20260904165040 31 254 6.4 8.0 0.00 0.00 0.00 49 1015.4
20260904164536 31 119 4.8 3.2 0.00 0.00 0.00 49 1015.6
20260904164032 31 127 1.6 3.2 0.00 0.00 0.00 50 1015.4
20260904163531 30 89 1.6 1.6 0.00 0.00 0.00 54 1015.4
20260904163026 30 210 6.4 8.0 0.00 0.00 0.00 52 1015.6
20260904162521 30 196 8.0 11.3 0.00 0.00 0.00 52 1015.6
20260904162016 30 215 4.8 3.2 0.00 0.00 0.00 53 1015.5
20260904161511 30 225 1.6 1.6 0.00 0.00 0.00 55 1015.5
20260904161007 29 165 1.6 1.6 0.00 0.00 0.00 56 1015.6
20260904160501 29 138 3.2 4.8 0.00 0.00 0.00 55 1015.5
20260904155956 29 87 0.0 0.0 0.00 0.00 0.00 55 1015.6
20260904155451 29 186 0.0 1.6 0.00 0.00 0.00 55 1015.5
20260904154949 28 94 1.6 1.6 0.00 0.00 0.00 58 1015.6
20260904154444 28 241 0.0 0.0 0.00 0.00 0.00 60 1015.5
20260904153939 28 235 4.8 3.2 0.00 0.00 0.00 58 1015.7
20260904153434 28 167 1.6 1.6 0.00 0.00 0.00 58 1015.4
20260904152931 28 180 3.2 4.8 0.00 0.00 0.00 57 1015.4
20260904152426 29 210 1.6 3.2 0.00 0.00 0.00 56 1015.7
20260904151925 28 157 4.8 4.8 0.00 0.00 0.00 56 1015.4
20260904151421 28 259 1.6 1.6 0.00 0.00 0.00 57 1015.4
20260904150915 28 243 4.8 4.8 0.00 0.00 0.00 57 1015.3
20260904150410 28 178 1.6 3.2 0.00 0.00 0.00 58 1015.4
20260904145908 28 161 1.6 1.6 0.00 0.00 0.00 57 1015.3
20260904145404 28 125 0.0 0.0 0.00 0.00 0.00 58 1015.4
20260904144900 28 189 3.2 3.2 0.00 0.00 0.00 58 1015.4
20260904144355 28 102 0.0 0.0 0.00 0.00 0.00 58 1015.4
20260904143851 28 102 1.6 1.6 0.00 0.00 0.00 58 1015.2
20260904143348 28 102 3.2 3.2 0.00 0.00 0.00 58 1015.2
20260904142843 28 108 0.0 0.0 0.00 0.00 0.00 60 1015.5
20260904142339 27 108 0.0 0.0 0.00 0.00 0.00 60 1015.2
20260904141833 27 110 0.0 0.0 0.00 0.00 0.00 60 1015.2
20260904141329 27 111 0.0 0.0 0.00 0.00 0.00 62 1015.2
20260904140825 26 114 0.0 0.0 0.00 0.00 0.00 64 1014.9
20260904140320 26 114 0.0 0.0 0.00 0.00 0.00 66 1015.2
20260904135819 25 121 0.0 0.0 0.00 0.00 0.00 67 1015.0
20260904135314 25 122 0.0 0.0 0.00 0.00 0.00 67 1015.0
20260904134810 25 128 0.0 0.0 0.00 0.00 0.00 69 1014.7
20260904134310 25 128 0.0 0.0 0.00 0.00 0.00 69 1014.8
20260904133804 25 128 1.6 1.6 0.00 0.00 0.00 69 1014.6
20260904133300 25 132 0.0 0.0 0.00 0.00 0.00 69 1014.4
20260904132800 25 185 1.6 1.6 0.00 0.00 0.00 70 1014.5
20260904132255 24 144 1.6 1.6 0.00 0.00 0.00 70 1014.5
20260904131754 24 133 1.6 1.6 0.00 0.00 0.00 70 1014.4
20260904131250 25 133 0.0 0.0 0.00 0.00 0.00 70 1014.3
20260904130750 25 126 0.0 0.0 0.00 0.00 0.00 69 1014.1
20260904130249 25 169 1.6 1.6 0.00 0.00 0.00 69 1014.0
20260904125746 25 172 1.6 1.6 0.00 0.00 0.00 69 1014.1
20260904125241 25 183 1.6 1.6 0.00 0.00 0.00 69 1013.8
20260904124740 25 177 1.6 1.6 0.00 0.00 0.00 69 1013.6
20260904124237 25 147 0.0 0.0 0.00 0.00 0.00 69 1013.5
20260904123732 25 180 1.6 1.6 0.00 0.00 0.00 69 1013.8
20260904123227 25 205 1.6 1.6 0.00 0.00 0.00 69 1013.5
20260904122722 25 191 1.6 1.6 0.00 0.00 0.00 70 1013.5
20260904122216 25 183 0.0 0.0 0.00 0.00 0.00 72 1013.2
20260904121712 25 183 0.0 0.0 0.00 0.00 0.00 72 1013.4
20260904121207 25 183 0.0 0.0 0.00 0.00 0.00 71 1013.4
20260904120703 25 183 0.0 0.0 0.00 0.00 0.00 71 1013.4
20260904120159 25 184 0.0 0.0 0.00 0.00 0.00 70 1013.3
20260904115655 25 184 0.0 0.0 0.00 0.00 0.00 69 1013.3
20260904115149 25 184 0.0 0.0 0.00 0.00 0.00 69 1013.2
20260904114644 25 184 0.0 0.0 0.00 0.00 0.00 69 1013.3
20260904114143 25 184 0.0 0.0 0.00 0.00 0.00 68 1013.3
20260904113638 25 184 0.0 0.0 0.00 0.00 0.00 68 1013.3
20260904113137 25 184 0.0 0.0 0.00 0.00 0.00 67 1013.2
20260904112633 26 184 0.0 0.0 0.00 0.00 0.00 66 1013.3
20260904112129 26 184 1.6 1.6 0.00 0.00 0.00 65 1013.3
20260904111624 26 181 0.0 0.0 0.00 0.00 0.00 65 1013.3
20260904111119 26 178 1.6 0.0 0.00 0.00 0.00 65 1013.3
20260904110615 26 136 1.6 1.6 0.00 0.00 0.00 67 1013.3
20260904110115 26 136 0.0 0.0 0.00 0.00 0.00 67 1013.4
20260904105615 26 136 0.0 0.0 0.00 0.00 0.00 67 1013.4
20260904105109 26 91 0.0 0.0 0.00 0.00 0.00 67 1013.4
20260904104605 26 91 0.0 0.0 0.00 0.00 0.00 67 1013.4
20260904104100 26 91 0.0 0.0 0.00 0.00 0.00 67 1013.4
20260904103556 26 91 0.0 0.0 0.00 0.00 0.00 67 1013.6
20260904103052 26 91 0.0 0.0 0.00 0.00 0.00 67 1013.3
20260904102548 26 91 0.0 0.0 0.00 0.00 0.00 67 1013.4
20260904102043 25 103 1.6 1.6 0.00 0.00 0.00 68 1013.2
20260904101539 25 103 0.0 0.0 0.00 0.00 0.00 68 1013.5
20260904101034 25 103 0.0 0.0 0.00 0.00 0.00 68 1013.3
20260904100530 25 103 0.0 0.0 0.00 0.00 0.00 68 1013.3
20260904100025 25 103 0.0 0.0 0.00 0.00 0.00 68 1013.3
20260904095520 25 103 0.0 0.0 0.00 0.00 0.00 67 1013.2
20260904095015 25 103 0.0 0.0 0.00 0.00 0.00 67 1013.4
20260904094510 25 103 1.6 1.6 0.00 0.00 0.00 67 1013.3
20260904094005 25 105 0.0 0.0 0.00 0.00 0.00 66 1013.2
20260904093502 26 105 0.0 0.0 0.00 0.00 0.00 66 1013.2
20260904092956 26 107 0.0 0.0 0.00 0.00 0.00 65 1013.2
20260904092453 26 105 1.6 1.6 0.00 0.00 0.00 66 1013.2
20260904091949 25 92 0.0 0.0 0.00 0.00 0.00 66 1013.1
20260904091445 25 85 0.0 0.0 0.00 0.00 0.00 67 1013.1
20260904090944 25 85 0.0 0.0 0.00 0.00 0.00 66 1013.3
20260904090440 25 85 1.6 1.6 0.00 0.00 0.00 66 1013.1
20260904085935 26 84 0.0 0.0 0.00 0.00 0.00 66 1013.4
20260904085430 26 86 1.6 1.6 0.00 0.00 0.00 66 1013.2
20260904084925 25 87 1.6 1.6 0.00 0.00 0.00 66 1013.1
20260904084421 26 91 0.0 0.0 0.00 0.00 0.00 66 1013.2
20260904083916 25 120 1.6 1.6 0.00 0.00 0.00 67 1013.1
20260904083413 25 126 0.0 0.0 0.00 0.00 0.00 67 1013.2
20260904082909 26 126 0.0 0.0 0.00 0.00 0.00 67 1013.3
20260904082408 25 126 0.0 0.0 0.00 0.00 0.00 66 1013.2
20260904081904 26 126 0.0 0.0 0.00 0.00 0.00 66 1013.3
20260904081359 26 126 0.0 0.0 0.00 0.00 0.00 66 1013.3
20260904080855 26 126 0.0 0.0 0.00 0.00 0.00 65 1013.3
20260904080350 26 126 0.0 0.0 0.00 0.00 0.00 65 1013.4
20260904075846 26 126 0.0 0.0 0.00 0.00 0.00 66 1013.3
20260904075342 26 126 0.0 0.0 0.00 0.00 0.00 66 1013.4
20260904074840 26 126 0.0 0.0 0.00 0.00 0.00 66 1013.3
20260904074335 26 125 0.0 0.0 0.00 0.00 0.00 65 1013.3
20260904073831 26 125 0.0 0.0 0.00 0.00 0.00 65 1013.3
20260904073326 26 126 0.0 0.0 0.00 0.00 0.00 65 1013.3
20260904072822 26 126 0.0 0.0 0.00 0.00 0.00 65 1013.2
20260904072321 26 126 0.0 0.0 0.00 0.00 0.00 64 1013.2
20260904071817 26 126 0.0 0.0 0.00 0.00 0.00 63 1013.5
20260904071312 26 126 0.0 0.0 0.00 0.00 0.00 63 1013.5
20260904070807 27 127 1.6 1.6 0.00 0.00 0.00 62 1013.4
20260904070306 27 137 1.6 1.6 0.00 0.00 0.00 61 1013.4
20260904065801 27 145 1.6 0.0 0.00 0.00 0.00 60 1013.5
20260904065257 27 186 0.0 0.0 0.00 0.00 0.00 60 1013.4
20260904064757 27 201 0.0 0.0 0.00 0.00 0.00 60 1013.5
20260904064253 27 201 0.0 0.0 0.00 0.00 0.00 60 1013.5
20260904063749 27 195 1.6 1.6 0.00 0.00 0.00 59 1013.4
20260904063244 27 220 3.2 3.2 0.00 0.00 0.00 59 1013.5
20260904062740 27 196 1.6 1.6 0.00 0.00 0.00 59 1013.6
20260904062236 27 241 4.8 4.8 0.00 0.00 0.00 59 1013.5
20260904061731 27 177 3.2 4.8 0.00 0.00 0.00 59 1013.3
20260904061227 27 149 3.2 3.2 0.00 0.00 0.00 60 1013.6
20260904060724 26 87 0.0 0.0 0.00 0.00 0.00 61 1013.5
20260904060219 26 86 1.6 1.6 0.00 0.00 0.00 61 1013.5
20260904055714 26 85 0.0 0.0 0.00 0.00 0.00 61 1013.2
20260904055209 26 73 0.0 1.6 0.00 0.00 0.00 61 1013.4
20260904054704 26 82 0.0 0.0 0.00 0.00 0.00 62 1013.2
20260904054201 27 57 0.0 0.0 0.00 0.00 0.00 61 1013.2
20260904053655 27 57 0.0 0.0 0.00 0.00 0.00 61 1013.2
20260904053150 27 57 0.0 0.0 0.00 0.00 0.00 60 1013.2
20260904052647 27 57 0.0 0.0 0.00 0.00 0.00 60 1013.3
20260904052142 27 68 1.6 1.6 0.00 0.00 0.00 59 1013.2
20260904051639 27 85 1.6 1.6 0.00 0.00 0.00 59 1013.2
20260904051139 27 104 0.0 0.0 0.00 0.00 0.00 58 1013.3
20260904050634 27 113 3.2 3.2 0.00 0.00 0.00 58 1013.4
20260904050125 27 117 3.2 3.2 0.00 0.00 0.00 58 1013.4
20260904045625 27 132 1.6 1.6 0.00 0.00 0.00 57 1013.3
20260904045119 27 124 1.6 1.6 0.00 0.00 0.00 58 1013.5
20260904044615 27 116 1.6 1.6 0.00 0.00 0.00 58 1013.4
20260904044111 27 121 0.0 0.0 0.00 0.00 0.00 57 1013.3
20260904043608 27 84 0.0 0.0 0.00 0.00 0.00 57 1013.3
20260904043103 27 116 1.6 3.2 0.00 0.00 0.00 57 1013.4
20260904042559 27 82 0.0 0.0 0.00 0.00 0.00 57 1013.4
20260904042054 28 101 4.8 4.8 0.00 0.00 0.00 56 1013.5
20260904041549 28 104 1.6 1.6 0.00 0.00 0.00 56 1013.5
20260904041045 28 98 4.8 8.0 0.00 0.00 0.00 55 1013.6
20260904040545 28 102 1.6 1.6 0.00 0.00 0.00 55 1013.4
20260904040042 28 126 3.2 4.8 0.00 0.00 0.00 54 1013.3
20260904035537 28 106 0.0 0.0 0.00 0.00 0.00 54 1013.3
20260904035037 28 127 6.4 8.0 0.00 0.00 0.00 54 1013.1
20260904034531 28 130 1.6 1.6 0.00 0.00 0.00 54 1013.3
20260904034027 28 100 0.0 0.0 0.00 0.00 0.00 55 1013.3
20260904033523 28 110 3.2 3.2 0.00 0.00 0.00 55 1013.2
20260904033020 28 107 0.0 1.6 0.00 0.00 0.00 55 1013.0
20260904032515 28 124 1.6 1.6 0.00 0.00 0.00 55 1013.1
20260904032014 28 104 1.6 1.6 0.00 0.00 0.00 54 1013.0
20260904031509 28 119 4.8 4.8 0.00 0.00 0.00 54 1012.9
20260904031005 28 83 4.8 4.8 0.00 0.00 0.00 54 1012.8
20260904030501 28 74 3.2 3.2 0.00 0.00 0.00 54 1012.8
20260904025955 28 68 1.6 3.2 0.00 0.00 0.00 55 1012.5
20260904025452 28 92 3.2 3.2 0.00 0.00 0.00 54 1012.7
20260904024951 28 124 0.0 1.6 0.00 0.00 0.00 54 1012.5
20260904024447 28 114 4.8 4.8 0.00 0.00 0.00 54 1012.4
20260904023943 28 118 1.6 1.6 0.00 0.00 0.00 54 1012.2
20260904023439 28 111 1.6 3.2 0.00 0.00 0.00 54 1012.2
20260904022938 28 49 3.2 3.2 0.00 0.00 0.00 54 1012.4
20260904022435 28 88 0.0 0.0 0.00 0.00 0.00 55 1012.1
20260904021931 28 115 1.6 1.6 0.00 0.00 0.00 54 1012.1
20260904021426 28 245 6.4 12.9 0.00 0.00 0.00 54 1012.1
20260904020921 28 172 3.2 4.8 0.00 0.00 0.00 54 1011.8
20260904020416 29 150 4.8 8.0 0.00 0.00 0.00 54 1011.9
20260904015914 29 183 6.4 8.0 0.00 0.00 0.00 54 1011.8
20260904015411 29 222 6.4 9.7 0.00 0.00 0.00 53 1011.9
20260904014909 29 245 9.7 12.9 0.00 0.00 0.00 53 1011.4
20260904014404 29 211 11.3 14.5 0.00 0.00 0.00 52 1011.5
20260904013900 29 248 4.8 8.0 0.00 0.00 0.00 52 1011.5
20260904013356 29 232 4.8 8.0 0.00 0.00 0.00 52 1011.5
20260904012852 30 239 9.7 11.3 0.00 0.00 0.00 51 1011.5
20260904012346 30 160 9.7 14.5 0.00 0.00 0.00 50 1011.2
20260904011845 30 190 11.3 12.9 0.00 0.00 0.00 49 1011.3
20260904011340 30 258 8.0 9.7 0.00 0.00 0.00 49 1011.1
20260904010835 30 243 8.0 11.3 0.00 0.00 0.00 48 1011.3
20260904010332 31 202 8.0 11.3 0.00 0.00 0.00 47 1011.0
20260904005827 31 223 6.4 11.3 0.00 0.00 0.00 46 1011.3
20260904005322 31 172 4.8 8.0 0.00 0.00 0.00 48 1011.2
20260904004817 31 226 6.4 8.0 0.00 0.00 0.00 47 1011.2
20260904004314 31 189 6.4 8.0 0.00 0.00 0.00 47 1011.3
20260904003808 31 191 9.7 11.3 0.00 0.00 0.00 46 1011.3
20260904003305 31 197 4.8 4.8 0.00 0.00 0.00 46 1011.2
20260904002759 32 201 3.2 3.2 0.00 0.00 0.00 46 1011.0
20260904002256 32 240 9.7 12.9 0.00 0.00 0.00 44 1011.1
20260904001755 32 264 0.0 0.0 0.00 0.00 0.00 43 1011.1
20260904001250 32 339 1.6 1.6 0.00 0.00 0.00 43 1011.1
20260904000745 32 296 0.0 0.0 0.00 0.00 0.00 44 1011.3
20260904000240 32 292 3.2 3.2 0.00 0.00 0.00 43 1011.4
20260903235739 32 320 1.6 1.6 0.00 0.00 0.00 42 1011.2
20260903235235 31 300 4.8 8.0 0.00 0.00 0.00 46 1011.2
20260903234734 31 291 1.6 3.2 0.00 0.00 0.00 47 1011.3
20260903234231 31 291 8.0 9.7 0.00 0.00 0.00 47 1011.1
20260903233727 31 301 6.4 9.7 0.00 0.00 0.00 46 1011.3
20260903233223 31 298 1.6 1.6 0.00 0.00 0.00 47 1011.3
20260903232721 31 224 4.8 4.8 0.00 0.00 0.00 48 1011.1
20260903232218 32 125 1.6 1.6 0.00 0.00 0.00 52 1011.1
20260903231716 32 257 6.4 8.0 0.00 0.00 0.00 41 1011.2
20260903231212 33 253 6.4 8.0 0.00 0.00 0.00 40 1011.2
20260903230708 33 290 1.6 1.6 0.00 0.00 0.00 41 1011.1
20260903230202 33 290 1.6 1.6 0.00 0.00 0.00 41 1011.0
20260903225658 33 294 3.2 3.2 0.00 0.00 0.00 41 1011.2
20260903225154 33 341 3.2 3.2 0.00 0.00 0.00 41 1011.5
20260903224650 33 350 1.6 1.6 0.00 0.00 0.00 40 1011.3
20260903224147 33 310 4.8 4.8 0.00 0.00 0.00 40 1011.2
20260903223641 34 291 3.2 3.2 0.00 0.00 0.00 38 1011.1
20260903223140 34 312 1.6 3.2 0.00 0.00 0.00 39 1011.2
20260903222635 33 357 1.6 1.6 0.00 0.00 0.00 39 1011.2
20260903222133 33 290 0.0 0.0 0.00 0.00 0.00 40 1011.1
20260903221629 33 295 3.2 4.8 0.00 0.00 0.00 39 1011.2
20260903221127 33 260 1.6 3.2 0.00 0.00 0.00 39 1011.1
20260903220626 33 133 1.6 1.6 0.00 0.00 0.00 38 1011.5
20260903220127 33 131 1.6 1.6 0.00 0.00 0.00 38 1011.5
20260903215625 33 215 8.0 8.0 0.00 0.00 0.00 37 1011.5
20260903215120 35 299 3.2 3.2 0.00 0.00 0.00 36 1011.6
20260903214619 35 253 4.8 3.2 0.00 0.00 0.00 35 1011.6
20260903214115 35 122 4.8 8.0 0.00 0.00 0.00 36 1011.5
20260903213610 34 255 4.8 4.8 0.00 0.00 0.00 36 1011.7
20260903213105 34 230 3.2 3.2 0.00 0.00 0.00 37 1011.8
20260903212601 35 239 8.0 8.0 0.00 0.00 0.00 36 1011.8
20260903212056 35 140 3.2 3.2 0.00 0.00 0.00 37 1011.9
20260903211551 34 253 4.8 4.8 0.00 0.00 0.00 37 1011.9
20260903211048 34 63 1.6 1.6 0.00 0.00 0.00 38 1011.8
20260903210542 34 123 0.0 0.0 0.00 0.00 0.00 37 1011.9
20260903210039 34 306 3.2 3.2 0.00 0.00 0.00 37 1012.0
20260903205538 34 280 4.8 4.8 0.00 0.00 0.00 38 1012.4
20260903205037 34 253 4.8 4.8 0.00 0.00 0.00 37 1012.2
20260903204534 35 301 4.8 4.8 0.00 0.00 0.00 37 1012.2
20260903204029 34 11 1.6 3.2 0.00 0.00 0.00 38 1012.2
20260903203525 33 53 1.6 1.6 0.00 0.00 0.00 40 1012.4
20260903203024 34 257 0.0 0.0 0.00 0.00 0.00 38 1012.5
20260903202520 34 329 1.6 3.2 0.00 0.00 0.00 39 1012.1
20260903202015 33 291 1.6 1.6 0.00 0.00 0.00 40 1012.6
20260903201510 33 15 0.0 0.0 0.00 0.00 0.00 40 1012.7
20260903201009 33 297 3.2 4.8 0.00 0.00 0.00 41 1013.1
20260903200504 33 114 1.6 1.6 0.00 0.00 0.00 41 1012.9
20260903195958 33 276 1.6 1.6 0.00 0.00 0.00 41 1013.1
20260903195455 33 175 1.6 1.6 0.00 0.00 0.00 40 1013.3
20260903194950 33 163 3.2 3.2 0.00 0.00 0.00 40 1013.4
20260903194445 33 198 3.2 3.2 0.00 0.00 0.00 41 1013.3
20260903193940 33 64 1.6 1.6 0.00 0.00 0.00 41 1013.3
20260903193437 32 160 4.8 4.8 0.00 0.00 0.00 41 1013.5
20260903192931 32 345 1.6 1.6 0.00 0.00 0.00 44 1013.6
20260903192428 32 239 0.0 0.0 0.00 0.00 0.00 43 1013.6
20260903191923 32 246 4.8 4.8 0.00 0.00 0.00 43 1013.6
20260903191420 32 250 3.2 3.2 0.00 0.00 0.00 44 1013.8
20260903190919 32 271 1.6 1.6 0.00 0.00 0.00 44 1013.9
20260903190413 32 202 1.6 1.6 0.00 0.00 0.00 43 1014.2
20260903185913 31 238 4.8 4.8 0.00 0.00 0.00 45 1014.2
20260903185408 31 251 1.6 4.8 0.00 0.00 0.00 44 1014.4
20260903184903 31 179 4.8 4.8 0.00 0.00 0.00 46 1014.5
20260903184400 31 228 1.6 3.2 0.00 0.00 0.00 46 1014.4
20260903183854 31 276 8.0 8.0 0.00 0.00 0.00 45 1014.4
20260903183349 31 181 1.6 1.6 0.00 0.00 0.00 46 1014.5
20260903182849 31 214 6.4 8.0 0.00 0.00 0.00 46 1014.5
20260903182348 31 253 6.4 8.0 0.00 0.00 0.00 45 1014.8
20260903181843 31 210 3.2 4.8 0.00 0.00 0.00 45 1014.7
20260903181338 31 143 0.0 0.0 0.00 0.00 0.00 46 1014.6
20260903180837 31 241 9.7 11.3 0.00 0.00 0.00 45 1014.8
20260903180332 31 246 4.8 4.8 0.00 0.00 0.00 46 1014.9
20260903175831 30 149 0.0 0.0 0.00 0.00 0.00 49 1014.9
20260903175331 30 184 6.4 8.0 0.00 0.00 0.00 48 1015.0
20260903174826 30 162 1.6 3.2 0.00 0.00 0.00 50 1014.9